Regional Weather Roundup
Issued by NWS Wilmington, NC

Home | Current Version | Previous Version | Text Only | Print | Product List | Glossary On
Versions: 1 2 3 4 5 6 7 8 9 10 11 12 13 14 15 16 17 18 19 20 21 22 23 24 25 26 27 28 29 30 31 32 33 34 35 36 37 38 39 40 41 42 43 44 45 46 47 48 49 50
000
ASUS42 KILM 220313
RWRILM
RWRILM
REGIONAL HOURLY WEATHER ROUNDUP
NATIONAL WEATHER SERVICE WILMINGTON NC
1000 PM EST WED FEB 21 2018

NOTE: "FAIR" INDICATES FEW OR NO CLOUDS BELOW 12,000 FEET WITH NO
SIGNIFICANT WEATHER AND/OR OBSTRUCTIONS TO VISIBILITY.

...............WFO WILMINGTON COUNTY WARNING AREA...............

......COASTAL NC AND SC COUNTIES......

CITY           SKY/WX    TMP DP  RH WIND       PRES   REMARKS
WILMINGTON     FAIR      67  65  93 S7        30.45S
N MYRTLE BEACH FAIR      67  65  93 S8        30.44F
MYRTLE BEACH   FAIR      67  65  93 S9        30.46S

......INLAND NC AND SC COUNTIES.......

CITY           SKY/WX    TMP DP  RH WIND       PRES   REMARKS
LUMBERTON      FAIR      67  64  90 CALM      30.44R
ELIZABETHTOWN  NOT AVBL
WHITEVILLE     FAIR      67  65  93 S5        30.44S
FLORENCE       FAIR      68  65  90 S6        30.43S
DARLINGTON     FAIR      68  65  90 S7        30.43F
KINGSTREE      FAIR      64  64 100 CALM      30.44S
HARTSVILLE     FAIR      64  63  94 S5        30.42S
BENNETTSVILLE  FAIR      70  68  94 S6        30.42S
CONWAY         FAIR      61  61 100 CALM      30.45S FOG
GEORGETOWN     FAIR      64  64 100 S5        30.45S
MARION         FAIR      68  63  83 S6        30.44S

....................REST OF NORTH CAROLINA......................

.........EASTERN NC.........

CITY           SKY/WX    TMP DP  RH WIND       PRES   REMARKS
CAPE HATTERAS  FAIR      64  63  96 SW6       30.46S
JACKSONVILLE   FAIR      66  64  93 S8        30.46R
MOREHEAD CITY  FAIR      64  63  96 SW8       30.46R
KENANSVILLE    FAIR      66  64  94 CALM      30.46R
NEW BERN       FAIR      64  63  96 S7        30.46S
ELIZABETH CITY FAIR      67  63  87 S12       30.43R

.........CENTRAL NC.........

CITY           SKY/WX    TMP DP  RH WIND       PRES   REMARKS
RALEIGH DURHAM MOCLDY    70  62  76 S10       30.43R
ROCKY MOUNT    NOT AVBL
ROANOKE RAPIDS NOT AVBL
FAYETTEVILLE   FAIR      69  64  84 S8        30.43R
HOFFMAN        FAIR      65  62  91 S6        30.42S

.........WESTERN NC.........

CITY           SKY/WX    TMP DP  RH WIND       PRES   REMARKS
CHARLOTTE      FAIR      67  65  93 S8        30.41S
GREENSBORO     FAIR      66  62  87 S8        30.40S
HICKORY        NOT AVBL
BOONE          NOT AVBL
ASHEVILLE      NOT AVBL

.....................REST OF SOUTH CAROLINA.....................

.........EASTERN SC.........

CITY           SKY/WX    TMP DP  RH WIND       PRES   REMARKS
CHARLESTON     FAIR      68  66  93 SE9       30.43S
BEAUFORT MCAS  FAIR      69  68  96 S3        30.43S
HILTON HEAD    FAIR      68  66  94 VRB6      30.44S

.........CENTRAL SC.........

CITY           SKY/WX    TMP DP  RH WIND       PRES   REMARKS
COLUMBIA       FAIR      71  66  84 S7        30.40S
ORANGEBURG     FAIR      67  64  90 SE5       30.43S
SUMTER SHAW    FAIR      67  64  89 S5        30.40F

.........WESTERN SC.........

CITY           SKY/WX    TMP DP  RH WIND       PRES   REMARKS
GREENVILLE     NOT AVBL
ROCK HILL      FAIR      70  65  84 S7        30.41S
ANDERSON       FAIR      66  62  87 CALM      30.39R
CLEMSON        NOT AVBL
GREENWOOD      MOCLDY    68  64  87 S3        30.41S


...................COASTAL AND OFFSHORE REPORTS..................

................LOCAL PIERS AND NC RESERVE................


STATION/POSITION TIME  SKY/WX   TEMP    WIND        PRES    VSBY
                                AIR SEA DIR/SP/G
                 (UTC)          (F)     (DEG/KT/KT) (MB)    (MI)
JOHNY MRCER PIER 0248            60 55  200/  8/  9 1031.4S
NC RESRV MASNBRO NOT AVBL
OCEAN CREST PIER NOT AVBL
SPRINGMAID  PIER 0248                               1034.2S


................COASTAL AND OFFSHORE BUOYS................


STATION/POSITION TIME  SKY/WX   TEMP    WIND        PRES    VSBY
                                AIR SEA DIR/SP/G
                 (UTC)          (F)     (DEG/KT/KT) (MB)    (MI)
DIMNDSHOAL 41025 0250            72 71  200/ 12/ 14 1031.7F
WVE H/P(F/S)=  4/12 SWL H/P/D(F/S/D)=  3/ 70/12

CAPE LOOKOUT     NOT AVBL
ONSLOW BAY 41036 NOT AVBL
ONSLOW BAY 41064 0208            71 70  180/  8/ 10 1031.4F
ONSLOW BAY 41159 0300               70                N/A
WVE H/P(F/S)=  4/ 7 SWL H/P/D(F/S/D)=  2/ 90/13

MASNBO INL 41110 0259               60                N/A
WVE H/P(F/S)=  3/ 6 SWL H/P/D(F/S/D)=  2/100/13

WILM HARBR 41108 0300               59                N/A
WVE H/P(F/S)=  3/ 8 SWL H/P/D(F/S/D)=  2/120/13

27SE WRITB 41037 0208            68 66  190/  8/ 14 1031.5S
FRYING PAN 41013 0300            72 70  170/ 14/ 16 1031.2
SUNST NRSH 41024 0208            58 58  160/  4/  6 1031.0F
CAPRS NRSH 41029 0208            59 60  150/  6/ 10 1030.7S
EDISTO     41004 0300            71 70  140/  8/ 10 1030.8


..........OFFSHORE BUOYS BEYOND 100 NM OFFSHORE...........
.....IN A TRIANGLE---HAT TO BERMUDA TO BAHAMAS TO HAT.....


STATION/POSITION TIME  SKY/WX   TEMP    WIND        PRES    VSBY
                                AIR SEA DIR/SP/G
                 (UTC)          (F)     (DEG/KT/KT) (MB)    (MI)
150E HAT   41001 NOT AVBL
W BERMUDA  41048 0300            69 69  110/ 12/ 14 1035.1
ATLANTIC S 41049 0250            72 75   70/ 17/ 21 1032.9S
WVE H/P(F/S)= 12/16 SWL H/P/D(F/S/D)= 10/ 30/16

E BAHAMAS  41046 0300            76 77   80/ 21/ 25 1028.5
NE BAHAMAS 41047 0250                   100/ 17/ 23 1031.6R
WVE H/P(F/S)= 10/ 9 SWL H/P/D(F/S/D)=  8/140/ 9

120E CANVRL41010 NOT AVBL

END



USA.gov is the U.S. government's official web portal to all federal, state and local government web resources and services.